Skagway, AK

1:58 PM AKST on February 19, 2018 (GMT -0900)
Skagway

Weather History for PAGY - February, 2014

Change the Weather History Date:

Sunday, February 16, 2014

  Actual Average Record
Temperature  
Mean Temperature 32 °F -  
Max Temperature 36 °F 34 °F 47 °F (1993)
Min Temperature 28 °F 26 °F 4 °F (1990)
Degree Days  
Heating Degree Days 33    
Moisture  
Dew Point 23 °F    
Average Humidity 68    
Maximum Humidity 86    
Minimum Humidity 52    
Precipitation  
Precipitation 0.01 in - - ()
Sea Level Pressure  
Sea Level Pressure 29.17 in    
Wind  
Wind Speed 15 mph (NNE)    
Max Wind Speed 34 mph    
Max Gust Speed 43 mph    
Visibility 10 miles    
Events      
Averages and records for this station are not official NWS values.
T = Trace of Precipitation, MM = Missing Value Source: NWS Daily Summary

Daily Weather History Graph

Daily Weather History Graph

Search for Another Location

Airport or City:

Trip Planner

Search our weather history database for the weather conditions in past years. The results will help you decide how hot, cold, wet, or windy it might be!

Date:

Astronomy

Feb. 16, 2014 Rise Set
Actual Time 7:34 AM AKST 4:57 PM AKST
Civil Twilight 6:51 AM AKST 5:40 PM AKST
Nautical Twilight 6:03 AM AKST 6:28 PM AKST
Astronomical Twilight 5:16 AM AKST 7:15 PM AKST
Moon 7:43 PM AKST (2/16) 7:32 AM AKST (2/16)
Length of Visible Light 10h 49m
Length of Day
9h 23m
Full, 97% of the Moon is Illuminated
Feb 16
Full
Feb 22
Last Quarter
Feb 28
New
Mar 8
First Quarter
Mar 16
Full

Hourly Weather History & Observations

Time (AKST) Temp. Windchill Dew Point Humidity Pressure Visibility Wind Dir Wind Speed Gust Speed Precip Events Conditions
12:53 AM 36.0 °F 22.2 °F 32.0 °F 86% 28.80 in 9.0 mi SSW 34.5 mph 42.6 mph 0.01 in   Unknown
1:53 AM 36.0 °F 27.5 °F 27.0 °F 70% 28.92 in 10.0 mi South 12.7 mph 28.8 mph N/A   Unknown
3:53 AM 34.0 °F 23.0 °F 26.1 °F 73% 29.00 in 10.0 mi South 18.4 mph 32.2 mph N/A   Unknown
4:53 AM 35.1 °F 22.7 °F 27.0 °F 72% 29.03 in 10.0 mi SSW 25.3 mph 40.3 mph N/A   Unknown
5:53 AM 35.1 °F 24.8 °F 24.1 °F 64% 29.06 in 10.0 mi SSW 17.3 mph 32.2 mph N/A   Unknown
6:53 AM 35.1 °F 23.8 °F 23.0 °F 61% 29.09 in 10.0 mi SSW 20.7 mph 29.9 mph N/A   Unknown
7:53 AM 34.0 °F 25.0 °F 18.0 °F 52% 29.14 in 10.0 mi SSW 12.7 mph 18.4 mph N/A   Unknown
8:53 AM 34.0 °F 26.0 °F 19.0 °F 54% 29.17 in 10.0 mi SSW 10.4 mph - N/A   Unknown
9:53 AM 32.0 °F 26.4 °F 21.0 °F 64% 29.23 in 10.0 mi Variable 5.8 mph - N/A   Unknown
10:53 AM 28.9 °F 21.9 °F 21.9 °F 75% 29.26 in 10.0 mi Variable 6.9 mph - N/A   Unknown
11:53 AM 32.0 °F 25.6 °F 24.1 °F 73% 29.29 in 10.0 mi ENE 6.9 mph - N/A   Partly Cloudy
12:53 PM 34.0 °F 28.0 °F 24.1 °F 67% 29.28 in 10.0 mi NNE 6.9 mph - N/A   Partly Cloudy
1:53 PM 35.1 °F - 23.0 °F 61% 29.29 in 10.0 mi Calm Calm - N/A   Partly Cloudy
2:53 PM 36.0 °F 33.3 °F 23.0 °F 59% 29.30 in 10.0 mi WNW 3.5 mph - N/A   Mostly Cloudy
3:53 PM 32.0 °F 27.5 °F 24.1 °F 73% 29.28 in 10.0 mi NE 4.6 mph - N/A   Overcast
4:53 PM 32.0 °F 28.7 °F 23.0 °F 69% 29.28 in 10.0 mi NE 3.5 mph - N/A   Partly Cloudy
5:53 PM 28.9 °F 25.2 °F 21.0 °F 72% 29.26 in 10.0 mi NNE 3.5 mph - N/A   Partly Cloudy
6:53 PM 28.0 °F 22.8 °F 21.0 °F 75% 29.26 in 9.0 mi NNE 4.6 mph - N/A   Scattered Clouds
7:53 PM 28.0 °F 24.2 °F 21.9 °F 78% 29.24 in 10.0 mi NNE 3.5 mph - N/A   Overcast
8:53 PM 28.0 °F - 21.9 °F 78% 29.22 in 10.0 mi Calm Calm - N/A   Overcast
9:53 PM 32.0 °F 25.6 °F 21.9 °F 66% 29.21 in 10.0 mi North 6.9 mph - N/A   Overcast
10:53 PM 32.0 °F 25.6 °F 21.0 °F 64% 29.20 in 10.0 mi NNE 6.9 mph - N/A   Overcast
11:53 PM 32.0 °F 26.4 °F 21.0 °F 64% 29.19 in 10.0 mi North 5.8 mph - N/A   Overcast